Location: Lake Almanor
(40.2485°N, 121.1442°W)
Time: 12:24:03
(UTC-08:00)

STARLINK-1110 - Pass Details

Date: 02 February 2020
Orbit: 348 x 351 km, 53.0° (Epoch: 18 February)

Event Time Altitude Azimuth Distance (km) Brightness Sun altitude
Rises 19:06:58 0° 293° (WNW) 2,161 7.7 -19.9°
Reaches altitude 10° 19:09:31 10° 269° (W) 1,314 6.8 -20.3°
Maximum altitude 19:11:21 15° 231° (SW) 1,047 5.7 -20.7°
Drops below altitude 10° 19:13:10 10° 192° (SSW) 1,308 5.7 -21.0°
Enters shadow 19:13:35 - 186° (S) 1,424 5.8 -21.1°
